Time,TemperatureF,DewpointF,PressureIn,WindDirection,WindDirectionDegrees,WindSpeedMPH,WindSpeedGustMPH,Humidity,HourlyPrecipIn,Conditions,Clouds,dailyrainin,SoftwareType,DateUTC
2013-12-18 00:04:00,18.9,13.2,30.05,South,174,0.0,2.0,78,0.00,,,0.00,Wunderground v.1.15,2013-12-18 06:04:00,
2013-12-18 00:09:00,19.1,13.7,30.05,South,176,2.0,4.0,79,0.00,,,0.00,Wunderground v.1.15,2013-12-18 06:09:00,
2013-12-18 00:14:00,19.7,14.0,30.05,South,175,3.0,3.0,78,0.00,,,0.00,Wunderground v.1.15,2013-12-18 06:14:00,
2013-12-18 00:20:00,20.0,13.6,30.03,South,184,5.0,5.0,76,0.00,,,0.00,Wunderground v.1.15,2013-12-18 06:20:00,
2013-12-18 00:25:00,19.9,13.6,30.03,South,179,4.0,5.0,76,0.00,,,0.00,Wunderground v.1.15,2013-12-18 06:25:00,
2013-12-18 00:31:00,19.7,13.7,30.03,South,169,2.0,4.0,77,0.00,,,0.00,Wunderground v.1.15,2013-12-18 06:31:00,
2013-12-18 00:37:00,19.4,13.1,30.02,SSE,166,2.0,4.0,76,0.00,,,0.00,Wunderground v.1.15,2013-12-18 06:37:00,
2013-12-18 00:43:00,19.4,13.4,30.02,South,180,3.0,4.0,77,0.00,,,0.00,Wunderground v.1.15,2013-12-18 06:43:00,
2013-12-18 00:49:00,19.2,12.9,30.02,South,188,4.0,6.0,76,0.00,,,0.00,Wunderground v.1.15,2013-12-18 06:49:00,
2013-12-18 00:54:00,18.8,12.5,30.02,South,188,2.0,5.0,76,0.00,,,0.00,Wunderground v.1.15,2013-12-18 06:54:00,
2013-12-18 00:59:00,18.6,12.6,30.02,South,187,3.0,5.0,77,0.00,,,0.00,Wunderground v.1.15,2013-12-18 06:59:00,
2013-12-18 01:05:00,18.9,12.9,30.01,South,180,2.0,7.0,77,0.00,,,0.00,Wunderground v.1.15,2013-12-18 07:05:00,
2013-12-18 01:11:00,19.2,13.2,30.01,South,190,5.0,5.0,77,0.00,,,0.00,Wunderground v.1.15,2013-12-18 07:11:00,
2013-12-18 01:16:00,19.5,13.2,30.01,South,184,5.0,6.0,76,0.00,,,0.00,Wunderground v.1.15,2013-12-18 07:16:00,
2013-12-18 01:21:00,19.9,13.3,29.99,South,182,4.0,5.0,75,0.00,,,0.00,Wunderground v.1.15,2013-12-18 07:21:00,
2013-12-18 01:27:00,20.2,13.2,29.99,SSW,196,4.0,6.0,74,0.00,,,0.00,Wunderground v.1.15,2013-12-18 07:27:00,
2013-12-18 01:33:00,20.3,13.3,29.98,South,188,5.0,6.0,74,0.00,,,0.00,Wunderground v.1.15,2013-12-18 07:33:00,
2013-12-18 01:38:00,20.5,12.9,29.98,SSW,192,5.0,7.0,72,0.00,,,0.00,Wunderground v.1.15,2013-12-18 07:38:00,
2013-12-18 01:44:00,20.3,12.7,29.98,South,175,5.0,10.0,72,0.00,,,0.00,Wunderground v.1.15,2013-12-18 07:44:00,
2013-12-18 01:49:00,20.3,12.4,29.96,South,183,2.0,10.0,71,0.00,,,0.00,Wunderground v.1.15,2013-12-18 07:49:00,
2013-12-18 01:55:00,20.3,12.4,29.96,SSE,159,5.0,7.0,71,0.00,,,0.00,Wunderground v.1.15,2013-12-18 07:55:00,
2013-12-18 02:00:00,20.5,12.6,29.96,South,182,4.0,5.0,71,0.00,,,0.00,Wunderground v.1.15,2013-12-18 08:00:00,
2013-12-18 02:05:00,20.6,12.4,29.95,SSE,163,3.0,12.0,70,0.00,,,0.00,Wunderground v.1.15,2013-12-18 08:05:00,
2013-12-18 02:10:00,20.8,12.2,29.95,South,188,5.0,6.0,69,0.00,,,0.00,Wunderground v.1.15,2013-12-18 08:10:00,
2013-12-18 02:15:00,21.1,12.2,29.95,South,180,11.0,12.0,68,0.00,,,0.00,Wunderground v.1.15,2013-12-18 08:15:00,
2013-12-18 02:20:00,21.4,12.1,29.94,South,176,12.0,13.0,67,0.00,,,0.00,Wunderground v.1.15,2013-12-18 08:20:00,
2013-12-18 02:25:00,22.1,12.5,29.94,South,171,8.0,14.0,66,0.00,,,0.00,Wunderground v.1.15,2013-12-18 08:25:00,
2013-12-18 02:30:00,22.7,12.3,29.94,South,187,10.0,12.0,64,0.00,,,0.00,Wunderground v.1.15,2013-12-18 08:30:00,
2013-12-18 02:35:00,23.0,12.6,29.93,SSE,162,9.0,13.0,64,0.00,,,0.00,Wunderground v.1.15,2013-12-18 08:35:00,
2013-12-18 02:40:00,23.5,12.7,29.93,South,179,9.0,13.0,63,0.00,,,0.00,Wunderground v.1.15,2013-12-18 08:40:00,
2013-12-18 02:45:00,23.9,12.8,29.93,South,184,10.0,13.0,62,0.00,,,0.00,Wunderground v.1.15,2013-12-18 08:45:00,
2013-12-18 02:50:00,23.9,12.4,29.91,South,185,11.0,15.0,61,0.00,,,0.00,Wunderground v.1.15,2013-12-18 08:50:00,
2013-12-18 02:55:00,24.2,12.7,29.91,South,172,11.0,15.0,61,0.00,,,0.00,Wunderground v.1.15,2013-12-18 08:55:00,
2013-12-18 03:00:00,24.4,12.9,29.91,SSE,165,11.0,13.0,61,0.00,,,0.00,Wunderground v.1.15,2013-12-18 09:00:00,
2013-12-18 03:05:00,24.4,12.9,29.90,South,185,9.0,20.0,61,0.00,,,0.00,Wunderground v.1.15,2013-12-18 09:05:00,
2013-12-18 03:10:00,24.4,12.9,29.90,South,178,12.0,15.0,61,0.00,,,0.00,Wunderground v.1.15,2013-12-18 09:10:00,
2013-12-18 03:15:00,24.4,12.5,29.90,South,175,10.0,19.0,60,0.00,,,0.00,Wunderground v.1.15,2013-12-18 09:15:00,
2013-12-18 03:20:00,24.4,12.5,29.89,South,172,7.0,11.0,60,0.00,,,0.00,Wunderground v.1.15,2013-12-18 09:20:00,
2013-12-18 03:26:00,24.4,12.9,29.89,South,185,6.0,17.0,61,0.00,,,0.00,Wunderground v.1.15,2013-12-18 09:26:00,
2013-12-18 03:31:00,24.4,12.9,29.89,SE,141,4.0,16.0,61,0.00,,,0.00,Wunderground v.1.15,2013-12-18 09:31:00,
2013-12-18 03:36:00,24.4,12.9,29.88,South,174,5.0,17.0,61,0.00,,,0.00,Wunderground v.1.15,2013-12-18 09:36:00,
2013-12-18 03:41:00,24.2,12.7,29.88,SSE,165,14.0,14.0,61,0.00,,,0.00,Wunderground v.1.15,2013-12-18 09:41:00,
2013-12-18 03:46:00,24.2,13.0,29.88,SSE,168,13.0,16.0,62,0.00,,,0.00,Wunderground v.1.15,2013-12-18 09:46:00,
2013-12-18 03:51:00,24.2,13.0,29.86,South,184,11.0,15.0,62,0.00,,,0.00,Wunderground v.1.15,2013-12-18 09:51:00,
2013-12-18 03:56:00,24.2,13.4,29.86,South,186,8.0,18.0,63,0.00,,,0.00,Wunderground v.1.15,2013-12-18 09:56:00,
2013-12-18 04:01:00,24.2,13.4,29.86,South,172,9.0,16.0,63,0.00,,,0.00,Wunderground v.1.15,2013-12-18 10:01:00,
2013-12-18 04:06:00,24.2,13.8,29.85,South,169,7.0,19.0,64,0.00,,,0.00,Wunderground v.1.15,2013-12-18 10:06:00,
2013-12-18 04:11:00,24.7,14.2,29.85,SSW,197,11.0,17.0,64,0.00,,,0.00,Wunderground v.1.15,2013-12-18 10:11:00,
2013-12-18 04:16:00,25.1,14.6,29.85,South,185,9.0,17.0,64,0.00,,,0.00,Wunderground v.1.15,2013-12-18 10:16:00,
2013-12-18 04:21:00,25.3,14.8,29.84,SSE,167,14.0,14.0,64,0.00,,,0.00,Wunderground v.1.15,2013-12-18 10:21:00,
2013-12-18 04:26:00,25.4,14.9,29.84,SSE,161,10.0,17.0,64,0.00,,,0.00,Wunderground v.1.15,2013-12-18 10:26:00,
2013-12-18 04:31:00,25.6,15.1,29.84,South,180,7.0,15.0,64,0.00,,,0.00,Wunderground v.1.15,2013-12-18 10:31:00,
2013-12-18 04:36:00,25.7,15.2,29.83,SSW,195,11.0,15.0,64,0.00,,,0.00,Wunderground v.1.15,2013-12-18 10:36:00,
2013-12-18 04:41:00,25.7,15.2,29.83,SSW,193,10.0,13.0,64,0.00,,,0.00,Wunderground v.1.15,2013-12-18 10:41:00,
2013-12-18 04:46:00,25.6,15.1,29.83,SSE,168,15.0,19.0,64,0.00,,,0.00,Wunderground v.1.15,2013-12-18 10:46:00,
2013-12-18 04:51:00,25.4,15.3,29.82,South,176,12.0,12.0,65,0.00,,,0.00,Wunderground v.1.15,2013-12-18 10:51:00,
2013-12-18 04:56:00,25.4,15.6,29.82,South,180,10.0,15.0,66,0.00,,,0.00,Wunderground v.1.15,2013-12-18 10:56:00,
2013-12-18 05:01:00,25.3,15.5,29.82,South,177,7.0,18.0,66,0.00,,,0.00,Wunderground v.1.15,2013-12-18 11:01:00,
2013-12-18 05:06:00,25.3,15.5,29.81,South,173,9.0,20.0,66,0.00,,,0.00,Wunderground v.1.15,2013-12-18 11:06:00,
2013-12-18 05:11:00,25.3,15.9,29.81,South,178,11.0,18.0,67,0.00,,,0.00,Wunderground v.1.15,2013-12-18 11:11:00,
2013-12-18 05:14:00,25.3,15.9,29.81,South,186,10.0,18.0,67,0.00,,,0.00,Wunderground v.1.15,2013-12-18 11:14:00,
2013-12-18 05:19:00,25.3,15.9,29.80,SSW,196,7.0,18.0,67,0.00,,,0.00,Wunderground v.1.15,2013-12-18 11:19:00,
2013-12-18 05:24:00,25.3,16.2,29.80,South,177,12.0,15.0,68,0.00,,,0.00,Wunderground v.1.15,2013-12-18 11:24:00,
2013-12-18 05:29:00,25.3,16.2,29.80,South,183,9.0,18.0,68,0.00,,,0.00,Wunderground v.1.15,2013-12-18 11:29:00,
2013-12-18 05:34:00,25.3,16.2,29.79,SSE,167,12.0,18.0,68,0.00,,,0.00,Wunderground v.1.15,2013-12-18 11:34:00,
2013-12-18 05:39:00,25.1,16.0,29.79,South,173,14.0,18.0,68,0.00,,,0.00,Wunderground v.1.15,2013-12-18 11:39:00,
2013-12-18 05:44:00,24.8,16.1,29.79,SSE,166,12.0,17.0,69,0.00,,,0.00,Wunderground v.1.15,2013-12-18 11:44:00,
2013-12-18 05:49:00,24.7,16.0,29.78,South,177,11.0,17.0,69,0.00,,,0.00,Wunderground v.1.15,2013-12-18 11:49:00,
2013-12-18 05:54:00,24.5,16.1,29.78,South,175,9.0,15.0,70,0.00,,,0.00,Wunderground v.1.15,2013-12-18 11:54:00,
2013-12-18 05:59:00,24.5,16.1,29.78,SSW,198,11.0,18.0,70,0.00,,,0.00,Wunderground v.1.15,2013-12-18 11:59:00,
2013-12-18 06:04:00,24.4,16.3,29.77,South,184,7.0,14.0,71,0.00,,,0.00,Wunderground v.1.15,2013-12-18 12:04:00,
2013-12-18 06:09:00,24.4,16.3,29.77,South,180,6.0,16.0,71,0.00,,,0.00,Wunderground v.1.15,2013-12-18 12:09:00,
2013-12-18 06:14:00,24.2,16.1,29.77,South,182,7.0,14.0,71,0.00,,,0.00,Wunderground v.1.15,2013-12-18 12:14:00,
2013-12-18 06:19:00,24.2,16.1,29.77,South,190,13.0,16.0,71,0.00,,,0.00,Wunderground v.1.15,2013-12-18 12:19:00,
2013-12-18 06:24:00,24.2,16.1,29.77,South,184,11.0,16.0,71,0.00,,,0.00,Wunderground v.1.15,2013-12-18 12:24:00,
2013-12-18 06:29:00,24.2,16.1,29.77,South,172,9.0,16.0,71,0.00,,,0.00,Wunderground v.1.15,2013-12-18 12:29:00,
2013-12-18 06:34:00,24.1,16.4,29.76,SSW,208,5.0,14.0,72,0.00,,,0.00,Wunderground v.1.15,2013-12-18 12:34:00,
2013-12-18 06:39:00,23.9,16.2,29.76,SSW,194,13.0,14.0,72,0.00,,,0.00,Wunderground v.1.15,2013-12-18 12:39:00,
2013-12-18 06:44:00,23.9,16.5,29.76,South,189,11.0,13.0,73,0.00,,,0.00,Wunderground v.1.15,2013-12-18 12:44:00,
2013-12-18 06:49:00,23.9,16.5,29.75,SSW,196,7.0,17.0,73,0.00,,,0.00,Wunderground v.1.15,2013-12-18 12:49:00,
2013-12-18 06:54:00,23.9,16.5,29.75,South,190,9.0,13.0,73,0.00,,,0.00,Wunderground v.1.15,2013-12-18 12:54:00,
2013-12-18 06:59:00,24.1,16.7,29.75,SSW,200,10.0,15.0,73,0.00,,,0.00,Wunderground v.1.15,2013-12-18 12:59:00,
2013-12-18 07:04:00,24.2,16.8,29.74,South,181,10.0,16.0,73,0.00,,,0.00,Wunderground v.1.15,2013-12-18 13:04:00,
2013-12-18 07:09:00,24.2,16.8,29.74,South,183,7.0,16.0,73,0.00,,,0.00,Wunderground v.1.15,2013-12-18 13:09:00,
2013-12-18 07:14:00,24.2,16.8,29.74,SSW,199,7.0,13.0,73,0.00,,,0.00,Wunderground v.1.15,2013-12-18 13:14:00,
2013-12-18 07:19:00,24.2,17.1,29.74,South,186,7.0,16.0,74,0.00,,,0.00,Wunderground v.1.15,2013-12-18 13:19:00,
2013-12-18 07:24:00,24.2,17.1,29.74,South,173,8.0,13.0,74,0.00,,,0.00,Wunderground v.1.15,2013-12-18 13:24:00,
2013-12-18 07:30:00,24.2,17.1,29.74,South,180,8.0,8.0,74,0.00,,,0.00,Wunderground v.1.15,2013-12-18 13:30:00,
2013-12-18 07:35:00,24.1,17.0,29.73,SSE,167,7.0,13.0,74,0.00,,,0.00,Wunderground v.1.15,2013-12-18 13:35:00,
2013-12-18 07:40:00,24.1,17.0,29.73,South,178,8.0,8.0,74,0.00,,,0.00,Wunderground v.1.15,2013-12-18 13:40:00,
2013-12-18 07:45:00,23.9,17.1,29.73,South,177,12.0,14.0,75,0.00,,,0.00,Wunderground v.1.15,2013-12-18 13:45:00,
2013-12-18 07:50:00,24.1,17.3,29.72,SSW,200,7.0,9.0,75,0.00,,,0.00,Wunderground v.1.15,2013-12-18 13:50:00,
2013-12-18 07:55:00,23.9,17.1,29.72,South,191,4.0,15.0,75,0.00,,,0.00,Wunderground v.1.15,2013-12-18 13:55:00,
2013-12-18 08:00:00,24.2,17.4,29.72,South,184,4.0,6.0,75,0.00,,,0.00,Wunderground v.1.15,2013-12-18 14:00:00,
2013-12-18 08:05:00,24.7,17.9,29.73,SSW,203,5.0,10.0,75,0.00,,,0.00,Wunderground v.1.15,2013-12-18 14:05:00,
2013-12-18 08:10:00,25.0,18.2,29.73,SSW,199,6.0,7.0,75,0.00,,,0.00,Wunderground v.1.15,2013-12-18 14:10:00,
2013-12-18 08:15:00,25.6,18.8,29.73,SSW,192,4.0,9.0,75,0.00,,,0.00,Wunderground v.1.15,2013-12-18 14:15:00,
2013-12-18 08:20:00,26.1,19.3,29.72,South,185,4.0,6.0,75,0.00,,,0.00,Wunderground v.1.15,2013-12-18 14:20:00,
2013-12-18 08:25:00,26.6,19.4,29.72,SSW,205,4.0,9.0,74,0.00,,,0.00,Wunderground v.1.15,2013-12-18 14:25:00,
2013-12-18 08:30:00,26.9,19.7,29.72,SSW,195,7.0,7.0,74,0.00,,,0.00,Wunderground v.1.15,2013-12-18 14:30:00,
2013-12-18 08:35:00,27.2,20.0,29.71,SSW,197,7.0,10.0,74,0.00,,,0.00,Wunderground v.1.15,2013-12-18 14:35:00,
2013-12-18 08:40:00,27.6,20.1,29.71,South,178,5.0,10.0,73,0.00,,,0.00,Wunderground v.1.15,2013-12-18 14:40:00,
2013-12-18 08:45:00,28.1,20.2,29.71,SSW,192,11.0,13.0,72,0.00,,,0.00,Wunderground v.1.15,2013-12-18 14:45:00,
2013-12-18 08:51:00,28.1,19.9,29.72,SSW,198,10.0,10.0,71,0.00,,,0.00,Wunderground v.1.15,2013-12-18 14:51:00,
2013-12-18 08:56:00,27.9,19.7,29.72,SSW,203,11.0,13.0,71,0.00,,,0.00,Wunderground v.1.15,2013-12-18 14:56:00,
2013-12-18 09:01:00,27.9,19.7,29.72,SSW,207,12.0,12.0,71,0.00,,,0.00,Wunderground v.1.15,2013-12-18 15:01:00,
2013-12-18 09:06:00,27.9,20.0,29.72,SSW,194,8.0,12.0,72,0.00,,,0.00,Wunderground v.1.15,2013-12-18 15:06:00,
2013-12-18 09:11:00,28.4,20.5,29.72,SSW,194,5.0,6.0,72,0.00,,,0.00,Wunderground v.1.15,2013-12-18 15:11:00,
2013-12-18 09:16:00,28.8,20.9,29.72,South,186,5.0,11.0,72,0.00,,,0.00,Wunderground v.1.15,2013-12-18 15:16:00,
2013-12-18 09:21:00,29.1,21.2,29.72,SSW,194,8.0,11.0,72,0.00,,,0.00,Wunderground v.1.15,2013-12-18 15:21:00,
2013-12-18 09:26:00,29.4,21.5,29.72,SSW,196,5.0,11.0,72,0.00,,,0.00,Wunderground v.1.15,2013-12-18 15:26:00,
2013-12-18 09:31:00,29.7,21.4,29.72,SSW,201,3.0,11.0,71,0.00,,,0.00,Wunderground v.1.15,2013-12-18 15:31:00,
2013-12-18 09:36:00,30.1,21.8,29.71,SSW,194,3.0,13.0,71,0.00,,,0.00,Wunderground v.1.15,2013-12-18 15:36:00,
2013-12-18 09:41:00,30.7,22.4,29.71,SSW,192,3.0,13.0,71,0.00,,,0.00,Wunderground v.1.15,2013-12-18 15:41:00,
2013-12-18 09:46:00,31.3,23.0,29.71,SSW,196,3.0,13.0,71,0.00,,,0.00,Wunderground v.1.15,2013-12-18 15:46:00,
2013-12-18 09:51:00,31.8,23.1,29.72,SSW,197,9.0,13.0,70,0.00,,,0.00,Wunderground v.1.15,2013-12-18 15:51:00,
2013-12-18 09:56:00,32.2,23.5,29.72,South,179,8.0,14.0,70,0.00,,,0.00,Wunderground v.1.15,2013-12-18 15:56:00,
2013-12-18 10:01:00,32.7,23.6,29.72,SSW,211,13.0,16.0,69,0.00,,,0.00,Wunderground v.1.15,2013-12-18 16:01:00,
2013-12-18 10:07:00,33.1,24.0,29.71,SW,214,9.0,16.0,69,0.00,,,0.00,Wunderground v.1.15,2013-12-18 16:07:00,
2013-12-18 10:12:00,33.5,24.1,29.71,SSW,206,3.0,11.0,68,0.00,,,0.00,Wunderground v.1.15,2013-12-18 16:12:00,
2013-12-18 10:17:00,33.8,24.4,29.71,SW,223,13.0,15.0,68,0.00,,,0.00,Wunderground v.1.15,2013-12-18 16:17:00,
2013-12-18 10:22:00,34.1,24.6,29.70,SSW,199,11.0,15.0,68,0.00,,,0.00,Wunderground v.1.15,2013-12-18 16:22:00,
2013-12-18 10:27:00,34.4,24.6,29.70,SSW,208,5.0,15.0,67,0.00,,,0.00,Wunderground v.1.15,2013-12-18 16:27:00,
2013-12-18 10:32:00,34.9,25.0,29.70,SSW,197,6.0,10.0,67,0.00,,,0.00,Wunderground v.1.15,2013-12-18 16:32:00,
2013-12-18 10:37:00,34.9,25.0,29.71,SW,215,11.0,13.0,67,0.00,,,0.00,Wunderground v.1.15,2013-12-18 16:37:00,
2013-12-18 10:42:00,35.0,25.1,29.71,SW,223,13.0,17.0,67,0.00,,,0.00,Wunderground v.1.15,2013-12-18 16:42:00,
2013-12-18 10:47:00,35.2,25.0,29.71,SW,225,7.0,17.0,66,0.00,,,0.00,Wunderground v.1.15,2013-12-18 16:47:00,
2013-12-18 10:52:00,35.3,25.1,29.70,SW,231,12.0,17.0,66,0.00,,,0.00,Wunderground v.1.15,2013-12-18 16:52:00,
2013-12-18 10:57:00,35.5,25.3,29.70,SSW,200,6.0,17.0,66,0.00,,,0.00,Wunderground v.1.15,2013-12-18 16:57:00,
2013-12-18 11:02:00,35.5,25.3,29.70,SW,221,5.0,11.0,66,0.00,,,0.00,Wunderground v.1.15,2013-12-18 17:02:00,
2013-12-18 11:07:00,35.8,25.5,29.69,SSW,192,3.0,16.0,66,0.00,,,0.00,Wunderground v.1.15,2013-12-18 17:07:00,
2013-12-18 11:12:00,35.9,25.3,29.69,SSW,203,5.0,10.0,65,0.00,,,0.00,Wunderground v.1.15,2013-12-18 17:12:00,
2013-12-18 11:17:00,36.0,25.7,29.69,SSW,195,4.0,12.0,66,0.00,,,0.00,Wunderground v.1.15,2013-12-18 17:17:00,
2013-12-18 11:22:00,36.2,25.6,29.69,SSW,198,4.0,6.0,65,0.00,,,0.00,Wunderground v.1.15,2013-12-18 17:22:00,
2013-12-18 11:27:00,36.2,25.6,29.69,SW,223,4.0,14.0,65,0.00,,,0.00,Wunderground v.1.15,2013-12-18 17:27:00,
2013-12-18 11:32:00,36.2,25.6,29.69,West,260,3.0,13.0,65,0.00,,,0.00,Wunderground v.1.15,2013-12-18 17:32:00,
2013-12-18 11:37:00,36.5,25.8,29.68,West,269,3.0,13.0,65,0.00,,,0.00,Wunderground v.1.15,2013-12-18 17:37:00,
2013-12-18 11:42:00,36.5,26.2,29.68,West,273,2.0,11.0,66,0.00,,,0.00,Wunderground v.1.15,2013-12-18 17:42:00,
2013-12-18 11:47:00,36.9,26.2,29.68,SSW,195,0.0,11.0,65,0.00,,,0.00,Wunderground v.1.15,2013-12-18 17:47:00,
2013-12-18 11:52:00,37.3,26.2,29.68,SSW,207,10.0,10.0,64,0.00,,,0.00,Wunderground v.1.15,2013-12-18 17:52:00,
2013-12-18 11:57:00,37.3,26.6,29.68,West,261,6.0,10.0,65,0.00,,,0.00,Wunderground v.1.15,2013-12-18 17:57:00,
2013-12-18 12:02:00,37.2,26.5,29.68,WSW,244,1.0,7.0,65,0.00,,,0.00,Wunderground v.1.15,2013-12-18 18:02:00,
2013-12-18 12:07:00,37.3,26.6,29.68,SSW,207,0.0,7.0,65,0.00,,,0.00,Wunderground v.1.15,2013-12-18 18:07:00,
2013-12-18 12:12:00,37.5,26.8,29.68,SSW,211,4.0,7.0,65,0.00,,,0.00,Wunderground v.1.15,2013-12-18 18:12:00,
2013-12-18 12:17:00,37.6,26.5,29.68,West,265,11.0,15.0,64,0.00,,,0.00,Wunderground v.1.15,2013-12-18 18:17:00,
2013-12-18 12:22:00,37.6,26.9,29.67,West,266,3.0,7.0,65,0.00,,,0.00,Wunderground v.1.15,2013-12-18 18:22:00,
2013-12-18 12:27:00,37.8,27.5,29.67,WSW,253,0.0,9.0,66,0.00,,,0.00,Wunderground v.1.15,2013-12-18 18:27:00,
2013-12-18 12:32:00,37.6,26.9,29.67,South,190,0.0,7.0,65,0.00,,,0.00,Wunderground v.1.15,2013-12-18 18:32:00,
2013-12-18 12:37:00,37.5,27.2,29.67,West,265,4.0,7.0,66,0.00,,,0.00,Wunderground v.1.15,2013-12-18 18:37:00,
2013-12-18 12:42:00,37.8,27.5,29.67,SSW,210,0.0,7.0,66,0.00,,,0.00,Wunderground v.1.15,2013-12-18 18:42:00,
2013-12-18 12:47:00,37.9,26.8,29.66,SW,221,6.0,10.0,64,0.00,,,0.00,Wunderground v.1.15,2013-12-18 18:47:00,
2013-12-18 12:53:00,37.9,26.8,29.66,SW,227,0.0,9.0,64,0.00,,,0.00,Wunderground v.1.15,2013-12-18 18:53:00,
2013-12-18 12:58:00,38.3,27.2,29.66,SSW,205,0.0,9.0,64,0.00,,,0.00,Wunderground v.1.15,2013-12-18 18:58:00,
2013-12-18 13:03:00,38.6,27.1,29.66,SW,217,4.0,10.0,63,0.00,,,0.00,Wunderground v.1.15,2013-12-18 19:03:00,
2013-12-18 13:08:00,39.1,27.6,29.66,WSW,248,2.0,10.0,63,0.00,,,0.00,Wunderground v.1.15,2013-12-18 19:08:00,
2013-12-18 13:13:00,39.5,27.9,29.66,SSW,192,4.0,9.0,63,0.00,,,0.00,Wunderground v.1.15,2013-12-18 19:13:00,
2013-12-18 13:18:00,39.3,27.4,29.65,SW,217,3.0,9.0,62,0.00,,,0.00,Wunderground v.1.15,2013-12-18 19:18:00,
2013-12-18 13:23:00,39.5,27.5,29.65,SSW,200,3.0,6.0,62,0.00,,,0.00,Wunderground v.1.15,2013-12-18 19:23:00,
2013-12-18 13:28:00,39.9,27.5,29.65,West,270,0.0,6.0,61,0.00,,,0.00,Wunderground v.1.15,2013-12-18 19:28:00,
2013-12-18 13:33:00,40.2,27.8,29.65,SW,220,9.0,10.0,61,0.00,,,0.00,Wunderground v.1.15,2013-12-18 19:33:00,
2013-12-18 13:38:00,40.1,27.7,29.65,SSW,202,0.0,11.0,61,0.00,,,0.00,Wunderground v.1.15,2013-12-18 19:38:00,
2013-12-18 13:43:00,39.9,27.9,29.65,SW,223,4.0,9.0,62,0.00,,,0.00,Wunderground v.1.15,2013-12-18 19:43:00,
2013-12-18 13:48:00,39.9,27.9,29.65,WSW,250,3.0,9.0,62,0.00,,,0.00,Wunderground v.1.15,2013-12-18 19:48:00,
2013-12-18 13:53:00,39.6,27.6,29.65,SSW,202,2.0,6.0,62,0.00,,,0.00,Wunderground v.1.15,2013-12-18 19:53:00,
2013-12-18 13:58:00,39.8,28.2,29.65,SSW,195,0.0,6.0,63,0.00,,,0.00,Wunderground v.1.15,2013-12-18 19:58:00,
2013-12-18 14:03:00,39.8,28.2,29.65,South,186,0.0,3.0,63,0.00,,,0.00,Wunderground v.1.15,2013-12-18 20:03:00,
2013-12-18 14:08:00,39.5,28.3,29.65,WNW,284,9.0,9.0,64,0.00,,,0.00,Wunderground v.1.15,2013-12-18 20:08:00,
2013-12-18 14:13:00,39.1,28.3,29.65,SW,225,6.0,10.0,65,0.00,,,0.00,Wunderground v.1.15,2013-12-18 20:13:00,
2013-12-18 14:18:00,38.8,28.4,29.64,West,265,0.0,10.0,66,0.00,,,0.00,Wunderground v.1.15,2013-12-18 20:18:00,
2013-12-18 14:23:00,38.8,28.4,29.64,WSW,246,5.0,9.0,66,0.00,,,0.00,Wunderground v.1.15,2013-12-18 20:23:00,
2013-12-18 14:28:00,38.8,28.4,29.64,WSW,250,2.0,10.0,66,0.00,,,0.00,Wunderground v.1.15,2013-12-18 20:28:00,
2013-12-18 14:33:00,38.9,28.9,29.65,SW,236,0.0,4.0,67,0.00,,,0.00,Wunderground v.1.15,2013-12-18 20:33:00,
2013-12-18 14:38:00,39.2,28.8,29.65,SW,236,1.0,5.0,66,0.00,,,0.00,Wunderground v.1.15,2013-12-18 20:38:00,
2013-12-18 14:43:00,39.3,28.9,29.65,WSW,249,3.0,6.0,66,0.00,,,0.00,Wunderground v.1.15,2013-12-18 20:43:00,
2013-12-18 14:49:00,39.1,28.7,29.65,WSW,257,0.0,7.0,66,0.00,,,0.00,Wunderground v.1.15,2013-12-18 20:49:00,
2013-12-18 14:54:00,39.1,28.7,29.65,WSW,245,3.0,5.0,66,0.00,,,0.00,Wunderground v.1.15,2013-12-18 20:54:00,
2013-12-18 14:59:00,38.8,28.4,29.65,WSW,246,5.0,10.0,66,0.00,,,0.00,Wunderground v.1.15,2013-12-18 20:59:00,
2013-12-18 15:04:00,38.6,28.6,29.66,West,261,5.0,7.0,67,0.00,,,0.00,Wunderground v.1.15,2013-12-18 21:04:00,
2013-12-18 15:09:00,38.3,28.3,29.66,SSW,208,3.0,7.0,67,0.00,,,0.00,Wunderground v.1.15,2013-12-18 21:09:00,
2013-12-18 15:14:00,38.2,28.6,29.66,WSW,240,0.0,7.0,68,0.00,,,0.00,Wunderground v.1.15,2013-12-18 21:14:00,
2013-12-18 15:19:00,38.3,28.3,29.66,WSW,240,0.0,7.0,67,0.00,,,0.00,Wunderground v.1.15,2013-12-18 21:19:00,
2013-12-18 15:24:00,38.2,28.2,29.66,WSW,248,3.0,7.0,67,0.00,,,0.00,Wunderground v.1.15,2013-12-18 21:24:00,
2013-12-18 15:29:00,38.2,28.6,29.66,WSW,250,0.0,7.0,68,0.00,,,0.00,Wunderground v.1.15,2013-12-18 21:29:00,
2013-12-18 15:34:00,38.2,28.2,29.66,WSW,250,0.0,5.0,67,0.00,,,0.00,Wunderground v.1.15,2013-12-18 21:34:00,
2013-12-18 15:39:00,38.0,28.4,29.66,WSW,250,0.0,5.0,68,0.00,,,0.00,Wunderground v.1.15,2013-12-18 21:39:00,
2013-12-18 15:44:00,38.0,28.4,29.66,WSW,244,0.0,2.0,68,0.00,,,0.00,Wunderground v.1.15,2013-12-18 21:44:00,
2013-12-18 15:49:00,37.9,28.3,29.66,WSW,244,2.0,3.0,68,0.00,,,0.00,Wunderground v.1.15,2013-12-18 21:49:00,
2013-12-18 15:54:00,37.6,28.3,29.66,SW,219,0.0,4.0,69,0.00,,,0.00,Wunderground v.1.15,2013-12-18 21:54:00,
2013-12-18 15:59:00,37.5,28.2,29.66,SSW,202,3.0,4.0,69,0.00,,,0.00,Wunderground v.1.15,2013-12-18 21:59:00,
2013-12-18 16:04:00,37.2,28.3,29.66,SSW,202,0.0,3.0,70,0.00,,,0.00,Wunderground v.1.15,2013-12-18 22:04:00,
2013-12-18 16:09:00,37.2,28.3,29.66,SSW,202,1.0,4.0,70,0.00,,,0.00,Wunderground v.1.15,2013-12-18 22:09:00,
2013-12-18 16:14:00,37.0,28.1,29.66,SSW,198,0.0,3.0,70,0.00,,,0.00,Wunderground v.1.15,2013-12-18 22:14:00,
2013-12-18 16:19:00,37.0,28.1,29.66,SSW,198,0.0,3.0,70,0.00,,,0.00,Wunderground v.1.15,2013-12-18 22:19:00,
2013-12-18 16:24:00,36.8,28.3,29.66,SSW,198,0.0,0.0,71,0.00,,,0.00,Wunderground v.1.15,2013-12-18 22:24:00,
2013-12-18 16:29:00,36.6,28.1,29.66,SSW,198,0.0,0.0,71,0.00,,,0.00,Wunderground v.1.15,2013-12-18 22:29:00,
2013-12-18 16:34:00,36.5,28.0,29.66,SSW,198,0.0,0.0,71,0.00,,,0.00,Wunderground v.1.15,2013-12-18 22:34:00,
2013-12-18 16:39:00,36.2,28.0,29.66,SSW,198,0.0,0.0,72,0.00,,,0.00,Wunderground v.1.15,2013-12-18 22:39:00,
2013-12-18 16:44:00,35.9,28.1,29.66,SSW,198,0.0,0.0,73,0.00,,,0.00,Wunderground v.1.15,2013-12-18 22:44:00,
2013-12-18 16:49:00,35.6,27.8,29.66,SSW,198,0.0,0.0,73,0.00,,,0.00,Wunderground v.1.15,2013-12-18 22:49:00,
2013-12-18 16:54:00,35.3,27.8,29.66,SSW,198,0.0,0.0,74,0.00,,,0.00,Wunderground v.1.15,2013-12-18 22:54:00,
2013-12-18 16:59:00,35.0,27.9,29.66,SSW,198,1.0,4.0,75,0.00,,,0.00,Wunderground v.1.15,2013-12-18 22:59:00,
2013-12-18 17:04:00,34.7,27.6,29.67,SSW,198,0.0,0.0,75,0.00,,,0.00,Wunderground v.1.15,2013-12-18 23:04:00,
2013-12-18 17:09:00,34.6,27.8,29.67,SSW,198,0.0,0.0,76,0.00,,,0.00,Wunderground v.1.15,2013-12-18 23:09:00,
2013-12-18 17:14:00,34.6,27.8,29.67,SSW,198,0.0,0.0,76,0.00,,,0.00,Wunderground v.1.15,2013-12-18 23:14:00,
2013-12-18 17:19:00,34.4,27.6,29.68,SSW,198,0.0,0.0,76,0.00,,,0.00,Wunderground v.1.15,2013-12-18 23:19:00,
2013-12-18 17:24:00,34.4,27.6,29.68,SSW,198,0.0,3.0,76,0.00,,,0.00,Wunderground v.1.15,2013-12-18 23:24:00,
2013-12-18 17:29:00,34.3,27.8,29.68,SSW,200,0.0,4.0,77,0.00,,,0.00,Wunderground v.1.15,2013-12-18 23:29:00,
2013-12-18 17:34:00,34.1,27.6,29.68,SSW,205,0.0,4.0,77,0.00,,,0.00,Wunderground v.1.15,2013-12-18 23:34:00,
2013-12-18 17:39:00,33.8,27.7,29.68,SSW,205,0.0,4.0,78,0.00,,,0.00,Wunderground v.1.15,2013-12-18 23:39:00,
2013-12-18 17:44:00,33.7,27.6,29.68,SSW,205,0.0,0.0,78,0.00,,,0.00,Wunderground v.1.15,2013-12-18 23:44:00,
2013-12-18 17:49:00,33.7,27.6,29.68,SSW,205,0.0,0.0,78,0.00,,,0.00,Wunderground v.1.15,2013-12-18 23:49:00,
2013-12-18 17:54:00,33.4,27.6,29.68,SSW,205,0.0,0.0,79,0.00,,,0.00,Wunderground v.1.15,2013-12-18 23:54:00,
2013-12-18 17:59:00,33.2,27.4,29.68,SSW,205,0.0,0.0,79,0.00,,,0.00,Wunderground v.1.15,2013-12-18 23:59:00,
2013-12-18 18:04:00,33.4,27.9,29.69,SSW,205,0.0,0.0,80,0.00,,,0.00,Wunderground v.1.15,2013-12-19 00:04:00,
2013-12-18 18:09:00,33.5,28.0,29.69,SSW,205,0.0,0.0,80,0.00,,,0.00,Wunderground v.1.15,2013-12-19 00:09:00,
2013-12-18 18:14:00,33.5,28.0,29.69,SSW,205,0.0,0.0,80,0.00,,,0.00,Wunderground v.1.15,2013-12-19 00:14:00,
2013-12-18 18:19:00,33.4,27.9,29.69,SSW,205,0.0,0.0,80,0.00,,,0.00,Wunderground v.1.15,2013-12-19 00:19:00,
2013-12-18 18:24:00,33.2,27.7,29.69,SSW,205,0.0,0.0,80,0.00,,,0.00,Wunderground v.1.15,2013-12-19 00:24:00,
2013-12-18 18:29:00,33.2,27.7,29.69,SSW,205,0.0,0.0,80,0.00,,,0.00,Wunderground v.1.15,2013-12-19 00:29:00,
2013-12-18 18:34:00,33.2,28.0,29.69,SSW,205,0.0,0.0,81,0.00,,,0.00,Wunderground v.1.15,2013-12-19 00:34:00,
2013-12-18 18:40:00,33.1,27.9,29.69,SSW,205,0.0,0.0,81,0.00,,,0.00,Wunderground v.1.15,2013-12-19 00:40:00,
2013-12-18 18:45:00,33.1,27.9,29.69,SSW,205,0.0,0.0,81,0.00,,,0.00,Wunderground v.1.15,2013-12-19 00:45:00,
2013-12-18 18:50:00,33.1,27.9,29.70,SSW,205,0.0,0.0,81,0.00,,,0.00,Wunderground v.1.15,2013-12-19 00:50:00,
2013-12-18 18:55:00,32.9,27.7,29.70,SSW,205,0.0,0.0,81,0.00,,,0.00,Wunderground v.1.15,2013-12-19 00:55:00,
2013-12-18 19:00:00,32.9,27.7,29.70,SSW,205,0.0,0.0,81,0.00,,,0.00,Wunderground v.1.15,2013-12-19 01:00:00,
2013-12-18 19:05:00,32.9,27.7,29.70,SSW,205,0.0,4.0,81,0.00,,,0.00,Wunderground v.1.15,2013-12-19 01:05:00,
2013-12-18 19:10:00,33.1,27.9,29.70,SSW,205,0.0,0.0,81,0.00,,,0.00,Wunderground v.1.15,2013-12-19 01:10:00,
2013-12-18 19:15:00,33.1,27.9,29.70,SSW,205,0.0,0.0,81,0.00,,,0.00,Wunderground v.1.15,2013-12-19 01:15:00,
2013-12-18 19:20:00,32.9,27.7,29.70,SSW,205,0.0,0.0,81,0.00,,,0.00,Wunderground v.1.15,2013-12-19 01:20:00,
2013-12-18 19:25:00,32.9,27.7,29.70,SSW,205,0.0,3.0,81,0.00,,,0.00,Wunderground v.1.15,2013-12-19 01:25:00,
2013-12-18 19:30:00,32.9,27.7,29.70,SSW,205,0.0,0.0,81,0.00,,,0.00,Wunderground v.1.15,2013-12-19 01:30:00,
2013-12-18 19:35:00,33.1,27.9,29.70,SSW,205,0.0,0.0,81,0.00,,,0.00,Wunderground v.1.15,2013-12-19 01:35:00,
2013-12-18 19:40:00,33.4,27.9,29.70,SSW,205,0.0,0.0,80,0.00,,,0.00,Wunderground v.1.15,2013-12-19 01:40:00,
2013-12-18 19:45:00,33.2,27.7,29.70,SSW,203,2.0,3.0,80,0.00,,,0.00,Wunderground v.1.15,2013-12-19 01:45:00,
2013-12-18 19:50:00,33.2,27.7,29.70,SW,220,0.0,4.0,80,0.00,,,0.00,Wunderground v.1.15,2013-12-19 01:50:00,
2013-12-18 19:55:00,33.1,27.6,29.70,SW,220,0.0,4.0,80,0.00,,,0.00,Wunderground v.1.15,2013-12-19 01:55:00,
2013-12-18 20:00:00,32.8,27.3,29.70,SW,220,0.0,0.0,80,0.00,,,0.00,Wunderground v.1.15,2013-12-19 02:00:00,
2013-12-18 20:05:00,32.7,27.5,29.70,SW,220,0.0,0.0,81,0.00,,,0.00,Wunderground v.1.15,2013-12-19 02:05:00,
2013-12-18 20:10:00,32.7,27.5,29.70,SW,220,0.0,0.0,81,0.00,,,0.00,Wunderground v.1.15,2013-12-19 02:10:00,
2013-12-18 20:16:00,32.5,27.6,29.70,SW,220,0.0,0.0,82,0.00,,,0.00,Wunderground v.1.15,2013-12-19 02:16:00,
2013-12-18 20:21:00,32.7,27.5,29.71,SW,220,0.0,0.0,81,0.00,,,0.00,Wunderground v.1.15,2013-12-19 02:21:00,
2013-12-18 20:26:00,32.4,27.2,29.71,SW,220,0.0,0.0,81,0.00,,,0.00,Wunderground v.1.15,2013-12-19 02:26:00,
2013-12-18 20:31:00,32.4,27.5,29.71,SW,220,0.0,0.0,82,0.00,,,0.00,Wunderground v.1.15,2013-12-19 02:31:00,
2013-12-18 20:36:00,32.2,27.3,29.71,SW,220,0.0,0.0,82,0.00,,,0.00,Wunderground v.1.15,2013-12-19 02:36:00,
2013-12-18 20:41:00,32.2,27.3,29.71,SW,220,0.0,0.0,82,0.00,,,0.00,Wunderground v.1.15,2013-12-19 02:41:00,
2013-12-18 20:46:00,32.1,27.2,29.71,SW,220,0.0,0.0,82,0.00,,,0.00,Wunderground v.1.15,2013-12-19 02:46:00,
2013-12-18 20:51:00,31.9,27.0,29.72,SW,220,0.0,0.0,82,0.00,,,0.00,Wunderground v.1.15,2013-12-19 02:51:00,
2013-12-18 20:56:00,32.1,27.5,29.72,SW,220,0.0,0.0,83,0.00,,,0.00,Wunderground v.1.15,2013-12-19 02:56:00,
2013-12-18 21:01:00,32.2,27.3,29.72,SW,220,0.0,0.0,82,0.00,,,0.00,Wunderground v.1.15,2013-12-19 03:01:00,
2013-12-18 21:06:00,32.5,27.6,29.73,SW,220,0.0,3.0,82,0.00,,,0.00,Wunderground v.1.15,2013-12-19 03:06:00,
2013-12-18 21:11:00,32.8,27.6,29.73,SW,220,0.0,0.0,81,0.00,,,0.00,Wunderground v.1.15,2013-12-19 03:11:00,
2013-12-18 21:16:00,32.9,27.4,29.73,SW,223,0.0,4.0,80,0.00,,,0.00,Wunderground v.1.15,2013-12-19 03:16:00,
2013-12-18 21:21:00,32.8,27.3,29.72,SW,223,0.0,1.0,80,0.00,,,0.00,Wunderground v.1.15,2013-12-19 03:21:00,
2013-12-18 21:26:00,32.7,27.2,29.72,SW,231,0.0,4.0,80,0.00,,,0.00,Wunderground v.1.15,2013-12-19 03:26:00,
2013-12-18 21:31:00,32.7,27.2,29.72,SW,231,0.0,3.0,80,0.00,,,0.00,Wunderground v.1.15,2013-12-19 03:31:00,
2013-12-18 21:36:00,32.7,27.2,29.72,SW,231,2.0,4.0,80,0.00,,,0.00,Wunderground v.1.15,2013-12-19 03:36:00,
2013-12-18 21:41:00,32.5,26.7,29.72,SW,231,1.0,1.0,79,0.00,,,0.00,Wunderground v.1.15,2013-12-19 03:41:00,
2013-12-18 21:46:00,32.5,27.0,29.72,West,267,5.0,5.0,80,0.00,,,0.00,Wunderground v.1.15,2013-12-19 03:46:00,
2013-12-18 21:51:00,32.5,27.0,29.73,West,267,0.0,5.0,80,0.00,,,0.00,Wunderground v.1.15,2013-12-19 03:51:00,
2013-12-18 21:56:00,32.4,26.6,29.73,West,267,0.0,5.0,79,0.00,,,0.00,Wunderground v.1.15,2013-12-19 03:56:00,
2013-12-18 22:01:00,31.9,26.4,29.73,West,267,0.0,1.0,80,0.00,,,0.00,Wunderground v.1.15,2013-12-19 04:01:00,
2013-12-18 22:06:00,31.6,26.1,29.73,West,267,0.0,1.0,80,0.00,,,0.00,Wunderground v.1.15,2013-12-19 04:06:00,
2013-12-18 22:11:00,31.2,26.0,29.73,West,267,0.0,0.0,81,0.00,,,0.00,Wunderground v.1.15,2013-12-19 04:11:00,
2013-12-18 22:16:00,30.7,25.6,29.73,West,267,0.0,0.0,81,0.00,,,0.00,Wunderground v.1.15,2013-12-19 04:16:00,
2013-12-18 22:21:00,30.4,25.6,29.73,West,267,0.0,0.0,82,0.00,,,0.00,Wunderground v.1.15,2013-12-19 04:21:00,
2013-12-18 22:26:00,30.4,25.9,29.73,West,267,0.0,0.0,83,0.00,,,0.00,Wunderground v.1.15,2013-12-19 04:26:00,
2013-12-18 22:32:00,30.6,26.1,29.73,West,279,0.0,3.0,83,0.00,,,0.00,Wunderground v.1.15,2013-12-19 04:32:00,
2013-12-18 22:37:00,31.0,26.1,29.74,West,279,0.0,3.0,82,0.00,,,0.00,Wunderground v.1.15,2013-12-19 04:37:00,
2013-12-18 22:42:00,31.2,26.0,29.74,NW,324,5.0,9.0,81,0.00,,,0.00,Wunderground v.1.15,2013-12-19 04:42:00,
2013-12-18 22:47:00,31.0,25.6,29.74,NW,323,4.0,9.0,80,0.00,,,0.00,Wunderground v.1.15,2013-12-19 04:47:00,
2013-12-18 22:52:00,31.2,25.4,29.74,NW,318,3.0,5.0,79,0.00,,,0.00,Wunderground v.1.15,2013-12-19 04:52:00,
2013-12-18 22:57:00,31.3,25.2,29.74,NW,315,5.0,7.0,78,0.00,,,0.00,Wunderground v.1.15,2013-12-19 04:57:00,
2013-12-18 23:01:00,31.3,25.2,29.74,NW,315,6.0,8.0,78,0.00,,,0.00,Wunderground v.1.15,2013-12-19 05:01:00,
2013-12-18 23:06:00,31.9,25.5,29.74,NW,321,6.0,10.0,77,0.00,,,0.00,Wunderground v.1.15,2013-12-19 05:06:00,
2013-12-18 23:11:00,32.1,25.4,29.74,NW,318,6.0,9.0,76,0.00,,,0.00,Wunderground v.1.15,2013-12-19 05:11:00,
2013-12-18 23:16:00,32.1,25.1,29.74,NW,323,3.0,9.0,75,0.00,,,0.00,Wunderground v.1.15,2013-12-19 05:16:00,
2013-12-18 23:21:00,31.8,24.8,29.75,NW,323,2.0,5.0,75,0.00,,,0.00,Wunderground v.1.15,2013-12-19 05:21:00,
2013-12-18 23:26:00,31.6,24.9,29.75,NNW,332,5.0,6.0,76,0.00,,,0.00,Wunderground v.1.15,2013-12-19 05:26:00,
2013-12-18 23:31:00,31.8,24.5,29.75,North,350,2.0,5.0,74,0.00,,,0.00,Wunderground v.1.15,2013-12-19 05:31:00,
2013-12-18 23:36:00,31.8,24.8,29.75,NNW,343,4.0,6.0,75,0.00,,,0.00,Wunderground v.1.15,2013-12-19 05:36:00,
2013-12-18 23:41:00,31.8,24.5,29.75,NNW,339,7.0,7.0,74,0.00,,,0.00,Wunderground v.1.15,2013-12-19 05:41:00,
2013-12-18 23:46:00,32.1,24.7,29.75,NNW,341,7.0,10.0,74,0.00,,,0.00,Wunderground v.1.15,2013-12-19 05:46:00,
2013-12-18 23:51:00,32.1,24.7,29.76,NNW,340,5.0,6.0,74,0.00,,,0.00,Wunderground v.1.15,2013-12-19 05:51:00,
2013-12-18 23:56:00,32.1,24.7,29.76,North,351,4.0,10.0,74,0.00,,,0.00,Wunderground v.1.15,2013-12-19 05:56:00,